World > North America > United States > Pennsylvania

Confluence, Pennsylvania Regional Weather

Lat: 39.81N, Lon: 79.35W
Wx Zone: PAZ033Web Search
Confluence Weather Warning NWS WEATHER ALERT FOR THE CONFLUENCE, PA AREA - HARD FROST ADVISORY Issued: 527 AM EDT Wed May 12 2021 Confluence Weather Warning  

Helpful Tip: Abbreviated, 7 Day, 14 Day Forecasts. There is a weather forecast for every taste.

Feedback


°F Click to change Confluence hourly weather to Imperial units.Click to change Confluence hourly weather to Metric units. °C
Confluence Weather Map
UTC Time: 5/12/2021, 15:30
Your Time:

Confluence, PA Regional Weather

Expires:202105121600;;003290
ASUS41 KCTP 121510
RWRCTP

REGIONAL WEATHER ROUNDUP
NATIONAL WEATHER SERVICE STATE COLLEGE PA
1100 AM EDT WED MAY 12 2021

Note: "fair" indicates few or no clouds below 12,000 feet with no 
significant weather and/or obstructions to visibility.

* = STATION THAT DOES NOT REPORT PRECIPITATION /E.G. RAIN...SNOW...ETC/
    THUNDER OR FOG.


PAZ004>006-010>012-017>019-024>028-033>037-041-042-045-046-049>053-121600-
CENTRAL PENNSYLVANIA
  
CITY           SKY/WX    TMP DP  RH WIND       PRES   REMARKS
BRADFORD       SUNNY     53  32  44 N13       30.28S                  
ST MARYS       SUNNY     48  36  61 N8        30.31F                  
DUBOIS         SUNNY     51  36  56 CALM      30.29F                  
CLEARFIELD     SUNNY     53  35  50 NW9       30.29F                  
JOHNSTOWN      MOSUNNY   49  34  56 N10       30.28S                  
SOMERSET       FAIR      46  34  61 N9        30.30R                  
ALTOONA        SUNNY     54  33  45 N14       30.28F                  
STATE COLLEGE  SUNNY     54  36  50 VRB6      30.27F                  
REEDSVILLE     FAIR      55 N/A N/A NW14G21   30.26F                  
WELLSBORO      FAIR      52  36  54 VRB6G17   30.24S                  
WILLIAMSPORT   SUNNY     58  37  45 W10       30.23F                  
SELINSGROVE    SUNNY     57  39  51 VRB7      30.26F                  
FT INDIANTOWN  MOSUNNY   58  35  42 NW6       30.24S                  
CAPITAL CITY   SUNNY     57  35  43 NW10      30.26S                  
HARRISBURG     SUNNY     58  36  43 NW14      30.25S                  
YORK           SUNNY     56  36  47 N9        30.25F                  
$$


SKY/WX - Weather  TMP - Temperature  DP - Dew Point  RH - Relative Humidity
WIND - Wind Direction/Speed PRES - Barometric Pressure VSB - Visibility
WCI - Wind Chill Index E13G22 Wind - East Wind 13 mph/Gusts of 22 mph